Location: Unnamed
(53.9021°N, 27.5568°E)
Time: 00:37:38
(UTC+03:00)

STARLINK-73 - Pass Details

Date: 25 January 2020
Orbit: 528 x 531 km, 53.0° (Epoch: 24 February)

Event Time Altitude Azimuth Distance (km) Brightness Sun altitude
Exits shadow 07:12:12 26° 237° (WSW) 1,068 4.7 -16.7°
Maximum altitude 07:14:18 62° 164° (SSE) 600 3.9 -16.4°
Drops below altitude 10° 07:18:18 10° 83° (E) 1,783 7.4 -15.9°
Sets 07:20:32 0° 81° (E) 2,675 8.5 -15.5°
